Regional Weather Roundup
Issued by NWS

Home | Current Version | Previous Version | Text Only | Print | Product List | Glossary On
Versions: 1 2 3 4 5 6 7 8 9 10 11 12 13 14 15 16 17 18 19 20 21 22 23 24 25 26 27 28 29 30 31 32 33 34 35 36 37 38 39 40 41 42 43 44 45 46 47 48 49 50
000
ASUS43 KLSX 251007
RWRMO

WEATHER SUMMARY FOR MISSOURI
NATIONAL WEATHER SERVICE SPRINGFIELD MO
400 AM CST SAT FEB 25 2017

NOTE: "FAIR" INDICATES FEW OR NO CLOUDS BELOW 12,000 FEET WITH NO
       SIGNIFICANT WEATHER AND/OR OBSTRUCTIONS TO VISIBILITY.
       CURRENT SKY AND/OR WEATHER CONDITIONS ARE NOT AVAILABLE FOR
       CHILLICOTHE AND FARMINGTON.

MOZ001>031-035>038-043-044-053-054-251100-
...NORTHERN AND WESTERN MISSOURI...

CITY           SKY/WX    TMP DP  RH WIND       PRES   REMARKS
KANSAS CTY INT MOCLDY    24  16  71 N9        30.07R WCI  14
KANSAS C DTWN  CLOUDY    27  17  66 NW7G16    30.08S WCI  19
LEE`S SUMMIT   PTCLDY    26  16  65 NW17G23   30.07S WCI  13
ST JOSEPH      CLEAR     22  16  78 N12       30.10R WCI  10
CHILLICOTHE      N/A     23  15  71 NW10      30.06R WCI  12
KIRKSVILLE     PTCLDY    21  15  78 NW14      29.97R WCI   8

$$
MOZ066>068-077>081-088>096-101>105-251100-
...SOUTHWEST MISSOURI...

CITY           SKY/WX    TMP DP  RH WIND       PRES   REMARKS
SPRINGFIELD    CLEAR     24  16  71 NW10      30.06F WCI  14
JOPLIN         CLEAR     23  17  78 W8        30.14F WCI  14
BRANSON        PTCLDY    25  16  68 NW10G25   30.08R WCI  15

$$
MOZ032>034-039>042-045>050-055>058-069>072-251100-
...CENTRAL MISSOURI...

CITY           SKY/WX    TMP DP  RH WIND       PRES   REMARKS
COLUMBIA       CLOUDY    27  17  66 W16       29.99S WCI  15
JEFFERSON CITY CLOUDY    27  16  63 W17G26    30.03R WCI  14
ROLLA          CLOUDY    25  16  68 W20G33    29.98R WCI  11
SEDALIA        CLEAR     25  16  68 NW14      30.06R WCI  13
WHITEMAN AFB   CLOUDY    27  16  63 NW16G24   30.05R WCI  15
WARRENSBURG    CLOUDY    28  18  64 NW12G17   30.08R WCI  18
OSAGE BEACH    PTCLDY    26  17  68 VRB7G18   30.06R WCI  18

$$
MOZ051-052-059>065-251100-
...EAST CENTRAL MISSOURI...

CITY           SKY/WX    TMP DP  RH WIND       PRES   REMARKS
ST LOUIS INTL  FLURRIES  30  17  58 W18G32    29.93R WCI  18
SPIRIT OF STL  CLOUDY    29  19  66 W16G22    29.94R WCI  17
ST CHARLES     CLOUDY    30  18  60 W28G35    29.92R WCI  15

$$
MOZ072>076-082>087-097>100-106>115-251100-
...SOUTH CENTRAL AND SOUTHEAST MISSOURI...

CITY           SKY/WX    TMP DP  RH WIND       PRES   REMARKS
CAPE GIRARDEAU CLEAR     32  18  56 NW17G23   29.94R WCI  21
FARMINGTON     CLOUDY    29  17  61 W16G35    29.94R WCI  17
POPLAR BLUFF   CLEAR     34  21  59 NW9       29.97R WCI  27
WEST PLAINS    MOCLDY    28  17  63 NW14G30   30.01R WCI  17

$$



USA.gov is the U.S. government's official web portal to all federal, state and local government web resources and services.